QPF
0.00 0.00 0.00 0.00 0.02 0.03 0.03 0.02 0.01 0.00 0.00 0.02 0.00 0.00 0.00 0.00 0.00 0.00 0.00 0.00 0.00 0.00 0.00 0.00 0.00 0.00 0.00 0.00 0.00 0.00 0.00 0.00 0.00 0.00 0.02 0.03 0.01 0.04 0.01 0.00 0.00 0.02 0.05 0.04
0.00 0.00 0.00 0.00 0.00 0.01 0.01 0.01 0.00 0.00 0.01 0.03 0.01 0.00 0.00 0.00 0.00 0.00 0.00 0.00 0.00 0.00 0.00 0.00 0.00 0.00 0.00 0.00 0.00 0.00 0.00 0.00 0.00 0.00 0.00 0.00 0.01 0.01 0.00 0.01 0.02 0.02 0.04 0.04
0.00 0.00 0.00 0.00 0.00 0.00 0.00 0.00 0.00 0.01 0.01 0.02 0.03 0.01 0.00 0.00 0.00 0.00 0.00 0.00 0.00 0.00 0.00 0.00 0.00 0.00 0.00 0.00 0.00 0.00 0.00 0.00 0.00 0.00 0.00 0.00 0.00 0.01 0.01 0.01 0.00 0.01 0.00 0.00
0.00 0.00 0.00 0.00 0.00 0.00 0.00 0.00 0.00 0.00 0.01 0.01 0.02 0.02 0.00 0.00 0.00 0.00 0.00 0.00 0.00 0.00 0.00 0.00 0.00 0.00 0.00 0.00 0.00 0.00 0.00 0.00 0.00 0.00 0.00 0.00 0.00 0.00 0.00 0.01 0.02 0.01 0.00 0.00
0.00 0.00 0.00 0.00 0.00 0.00 0.00 0.00 0.00 0.00 0.00 0.01 0.00 0.01 0.00 0.00 0.00 0.00 0.00 0.00 0.00 0.00 0.00 0.00 0.00 0.00 0.00 0.00 0.00 0.00 0.00 0.00 0.00 0.00 0.00 0.00 0.00 0.01 0.01 0.01 0.01 0.00 0.00 0.00
0.00 0.00 0.00 0.00 0.00 0.00 0.00 0.00 0.00 0.00 0.01 0.01 0.00 0.01 0.00 0.00 0.00 0.00 0.00 0.00 0.00 0.00 0.00 0.00 0.00 0.00 0.00 0.00 0.00 0.00 0.00 0.00 0.00 0.00 0.00 0.00 0.00 0.01 0.01 0.01 0.01 0.01 0.02 0.03
0.00 0.00 0.00 0.01 0.00 0.00 0.01 0.01 0.00 0.00 0.00 0.00 0.00 0.01 0.00 0.00 0.00 0.00 0.00 0.00 0.00 0.00 0.00 0.00 0.00 0.00 0.00 0.00 0.00 0.00 0.00 0.00 0.00 0.00 0.00 0.00 0.01 0.01 0.03 0.01 0.01 0.04 0.02 0.02
0.01 0.00 0.00 0.00 0.00 0.00 0.00 0.00 0.00 0.00 0.02 0.03 0.04 0.03 0.01 0.00 0.00 0.00 0.00 0.00 0.00 0.00 0.00 0.00 0.00 0.00 0.00 0.00 0.00 0.00 0.00 0.00 0.00 0.01 0.02 0.03 0.06 0.05 0.05 0.06 0.10 0.18 0.14 0.05
0.01 0.00 0.00 0.00 0.00 0.00 0.00 0.01 0.00 0.00 0.01 0.02 0.03 0.07 0.02 0.01 0.01 0.00 0.01 0.00 0.00 0.00 0.00 0.00 0.00 0.00 0.00 0.00 0.00 0.00 0.00 0.00 0.00 0.00 0.05 0.09 0.10 0.12 0.05 0.02 0.11 0.17 0.22 0.14
0.01 0.00 0.00 0.00 0.00 0.00 0.00 0.00 0.00 0.01 0.00 0.00 0.00 0.01 0.01 0.00 0.00 0.00 0.00 0.00 0.00 0.00 0.00 0.00 0.00 0.00 0.00 0.00 0.00 0.00 0.00 0.00 0.00 0.01 0.05 0.03 0.05 0.14 0.21 0.19 0.26 0.21 0.11 0.06
0.01 0.01 0.00 0.00 0.00 0.00 0.00 0.00 0.00 0.01 0.00 0.00 0.01 0.00 0.00 0.00 0.00 0.00 0.00 0.00 0.00 0.00 0.00 0.00 0.00 0.00 0.00 0.00 0.00 0.00 0.00 0.00 0.00 0.01 0.02 0.05 0.09 0.13 0.22 0.28 0.31 0.29 0.17 0.07
0.01 0.01 0.00 0.00 0.00 0.01 0.01 0.00 0.00 0.00 0.00 0.00 0.00 0.00 0.00 0.00 0.00 0.00 0.00 0.00 0.00 0.00 0.00 0.00 0.00 0.00 0.00 0.00 0.00 0.00 0.00 0.00 0.00 0.01 0.01 0.02 0.05 0.08 0.17 0.21 0.18 0.15 0.08 0.04
0.01 0.01 0.00 0.00 0.00 0.00 0.00 0.00 0.00 0.00 0.00 0.00 0.00 0.00 0.00 0.00 0.00 0.00 0.00 0.00 0.00 0.00 0.00 0.00 0.00 0.00 0.00 0.00 0.00 0.00 0.00 0.00 0.00 0.00 0.00 0.00 0.01 0.05 0.05 0.06 0.07 0.04 0.02 0.05
0.01 0.01 0.01 0.00 0.00 0.00 0.00 0.00 0.00 0.00 0.00 0.00 0.00 0.00 0.00 0.00 0.00 0.00 0.00 0.00 0.00 0.00 0.00 0.00 0.00 0.00 0.00 0.00 0.00 0.00 0.00 0.00 0.00 0.00 0.00 0.00 0.00 0.01 0.02 0.02 0.02 0.02 0.01 0.01
0.00 0.00 0.00 0.00 0.00 0.00 0.00 0.00 0.00 0.00 0.00 0.00 0.00 0.00 0.00 0.00 0.00 0.00 0.00 0.00 0.00 0.00 0.00 0.00 0.00 0.00 0.00 0.00 0.00 0.00 0.00 0.00 0.00 0.00 0.00 0.00 0.00 0.00 0.00 0.00 0.00 0.00 0.00 0.00
0.00 0.00 0.00 0.00 0.00 0.00 0.00 0.00 0.00 0.00 0.00 0.00 0.00 0.00 0.00 0.00 0.00 0.00 0.00 0.01 0.00 0.00 0.00 0.00 0.00 0.00 0.00 0.00 0.00 0.00 0.00 0.00 0.00 0.00 0.00 0.00 0.00 0.00 0.00 0.00 0.00 0.00 0.00 0.00
0.00 0.00 0.00 0.00 0.00 0.00 0.00 0.00 0.00 0.00 0.00 0.00 0.00 0.00 0.00 0.00 0.00 0.00 0.00 0.00 0.00 0.00 0.00 0.00 0.00 0.00 0.00 0.00 0.00 0.00 0.00 0.00 0.00 0.00 0.00 0.00 0.00 0.00 0.00 0.00 0.00 0.00 0.00 0.00
0.00 0.00 0.00 0.00 0.00 0.00 0.00 0.00 0.00 0.00 0.00 0.00 0.00 0.00 0.00 0.00 0.00 0.00 0.00 0.00 0.00 0.00 0.00 0.00 0.00 0.00 0.00 0.00 0.00 0.00 0.00 0.00 0.00 0.00 0.00 0.00 0.00 0.00 0.00 0.00 0.00 0.00 0.00 0.00
0.00 0.00 0.00 0.00 0.00 0.00 0.01 0.00 0.00 0.01 0.00 0.01 0.00 0.00 0.00 0.00 0.00 0.00 0.00 0.00 0.00 0.00 0.00 0.00 0.00 0.00 0.00 0.00 0.00 0.00 0.00 0.00 0.00 0.00 0.00 0.00 0.00 0.00 0.00 0.00 0.00 0.00 0.00 0.00
0.00 0.00 0.00 0.00 0.00 0.00 0.00 0.00 0.00 0.00 0.00 0.00 0.00 0.00 0.00 0.00 0.00 0.00 0.00 0.00 0.00 0.00 0.00 0.00 0.00 0.00 0.00 0.00 0.00 0.00 0.00 0.00 0.00 0.00 0.00 0.00 0.00 0.00 0.00 0.00 0.00 0.00 0.00 0.00
0.00 0.00 0.00 0.00 0.00 0.00 0.00 0.00 0.00 0.00 0.00 0.00 0.00 0.00 0.00 0.00 0.00 0.00 0.00 0.00 0.00 0.00 0.00 0.00 0.00 0.00 0.00 0.00 0.00 0.00 0.00 0.00 0.00 0.00 0.00 0.00 0.00 0.00 0.00 0.00 0.00 0.00 0.00 0.00
0.00 0.00 0.00 0.00 0.00 0.00 0.00 0.00 0.00 0.00 0.00 0.00 0.00 0.00 0.00 0.00 0.00 0.00 0.00 0.00 0.00 0.00 0.00 0.00 0.00 0.00 0.00 0.00 0.00 0.00 0.00 0.00 0.00 0.00 0.00 0.00 0.00 0.00 0.00 0.00 0.00 0.00 0.00 0.00
0.00 0.00 0.00 0.00 0.00 0.00 0.00 0.00 0.00 0.00 0.00 0.00 0.00 0.00 0.00 0.00 0.00 0.00 0.00 0.00 0.00 0.00 0.00 0.00 0.00 0.00 0.00 0.00 0.00 0.00 0.00 0.00 0.00 0.00 0.00 0.00 0.00 0.00 0.00 0.00 0.00 0.00 0.00 0.00
0.00 0.00 0.00 0.00 0.00 0.00 0.00 0.00 0.00 0.00 0.00 0.00 0.00 0.00 0.00 0.00 0.00 0.00 0.00 0.00 0.00 0.00 0.00 0.00 0.00 0.00 0.00 0.00 0.00 0.00 0.00 0.00 0.00 0.00 0.00 0.00 0.00 0.00 0.00 0.00 0.00 0.00 0.00 0.00
0.00 0.00 0.00 0.00 0.00 0.00 0.00 0.00 0.00 0.00 0.00 0.00 0.00 0.00 0.00 0.00 0.00 0.00 0.00 0.00 0.00 0.00 0.00 0.00 0.00 0.00 0.00 0.00 0.00 0.00 0.00 0.00 0.00 0.00 0.00 0.00 0.00 0.00 0.00 0.00 0.00 0.00 0.00 0.00
0.00 0.00 0.00 0.00 0.00 0.00 0.00 0.00 0.00 0.00 0.00 0.00 0.00 0.00 0.00 0.00 0.00 0.00 0.00 0.00 0.00 0.00 0.00 0.00 0.00 0.00 0.00 0.00 0.00 0.00 0.00 0.00 0.00 0.00 0.00 0.00 0.00 0.00 0.00 0.00 0.00 0.00 0.00 0.00
MSLP
1012.43 1011.83 1011.94 1011.41 1010.93 1010.43 1009.99 1008.33 1006.70 1004.87 1004.56 1004.32 1002.29 1000.76 999.56 999.32 999.47 998.99 999.01 998.66 998.19 997.75 997.82 997.97 998.15 998.44 999.16 999.59 1000.05 1000.63 1001.33 1001.87 1002.87 1003.60 1004.06 1005.16 1005.46 1006.31 1006.80 1007.35 1007.86 1008.53 1009.41 1010.38
1013.29 1012.37 1011.93 1010.94 1010.56 1010.45 1009.04 1008.51 1006.86 1006.83 1005.38 1004.73 1003.45 1000.64 999.43 999.20 998.12 997.85 997.72 997.41 997.10 997.30 997.43 997.30 997.49 997.63 997.91 998.58 999.01 999.40 1000.00 1000.54 1001.24 1001.94 1002.18 1003.33 1004.19 1004.87 1005.46 1006.01 1006.87 1007.57 1008.66 1009.53
1013.09 1011.86 1011.27 1011.18 1010.47 1010.33 1008.93 1008.31 1007.70 1006.46 1005.10 1005.08 1004.06 1000.62 997.82 996.98 997.22 997.13 996.35 996.27 996.34 996.19 996.39 996.46 996.33 996.38 996.68 997.10 997.65 998.01 998.48 999.03 999.56 1000.23 1001.13 1002.40 1003.60 1004.55 1005.14 1005.56 1006.14 1006.82 1007.62 1008.39
1012.31 1011.27 1010.84 1010.48 1010.00 1009.82 1008.09 1008.17 1006.99 1006.13 1006.02 1003.46 1003.39 999.92 997.93 996.90 995.91 996.20 995.34 995.42 995.45 995.60 995.43 995.43 995.16 995.06 995.56 995.90 996.06 996.53 996.96 997.62 998.20 999.23 999.65 1000.85 1001.63 1002.69 1003.44 1004.25 1005.08 1005.88 1006.75 1007.37
1012.23 1011.69 1010.98 1010.15 1009.04 1008.40 1007.29 1007.08 1006.54 1005.31 1004.54 1004.05 1002.43 1001.42 997.04 997.03 996.22 995.50 994.90 994.68 994.65 994.64 994.72 994.26 994.09 994.22 994.62 995.28 995.50 995.48 995.84 996.48 997.26 998.14 998.39 999.54 1000.71 1001.49 1002.26 1003.18 1003.90 1004.77 1005.56 1006.47
1012.51 1011.55 1010.46 1008.59 1008.07 1007.19 1007.02 1006.62 1004.87 1004.14 1004.20 1002.62 1000.76 1001.12 998.11 997.84 997.42 996.52 996.18 996.97 996.70 996.65 996.43 996.12 995.43 995.61 995.72 995.70 995.30 994.80 995.24 995.78 997.00 997.51 997.89 998.68 999.41 1000.49 1001.45 1002.24 1003.08 1003.84 1004.57 1005.72
1012.76 1010.56 1008.98 1007.89 1008.18 1006.67 1006.81 1006.69 1004.68 1003.99 1003.20 1000.48 999.33 1000.20 998.70 998.06 998.43 998.45 999.11 998.74 998.69 998.22 997.94 997.70 997.60 997.38 996.96 996.34 995.45 994.69 994.95 995.61 996.63 996.91 997.49 998.34 999.17 1000.00 1000.50 1001.19 1001.93 1002.91 1003.65 1004.75
1013.65 1010.65 1008.96 1008.35 1008.17 1007.57 1006.57 1006.42 1005.17 1003.37 1002.53 1000.50 999.80 998.70 998.58 998.87 999.73 999.27 1000.19 1000.45 999.68 999.69 999.50 999.35 999.18 998.77 998.18 997.54 996.51 995.64 995.69 996.00 996.18 996.89 997.20 997.89 998.60 999.33 999.98 1000.62 1001.22 1001.88 1002.53 1003.45
1014.51 1011.67 1009.11 1008.64 1007.55 1007.86 1006.07 1005.52 1004.41 1003.14 1002.14 1001.32 999.26 999.18 1000.08 1000.45 1000.21 1000.50 1001.28 1001.55 1001.50 1001.07 1000.58 1000.55 1000.16 1000.03 999.49 998.97 998.16 997.52 997.17 997.24 997.16 997.11 997.42 997.84 998.48 998.91 999.43 999.88 1000.42 1001.07 1002.01 1002.80
1014.87 1012.09 1009.31 1008.27 1007.26 1006.83 1007.04 1005.85 1004.32 1003.16 1002.32 1002.13 999.91 1000.28 1001.68 1001.86 1002.18 1001.79 1002.49 1002.82 1002.81 1001.93 1001.87 1001.76 1001.35 1001.52 1000.68 999.95 999.71 998.92 998.75 998.79 998.76 998.44 998.51 998.49 998.78 999.25 999.70 999.67 1000.08 1000.58 1000.82 1001.53
1014.89 1013.21 1010.13 1009.19 1007.97 1007.67 1006.60 1005.96 1005.78 1003.99 1002.29 1001.39 1002.30 1003.48 1003.67 1003.58 1003.46 1004.04 1004.04 1004.48 1003.88 1004.60 1003.61 1003.23 1003.19 1002.70 1002.04 1001.41 1000.87 1000.35 1000.22 1000.00 1000.22 1000.19 1000.06 999.75 999.93 999.97 1000.28 1000.51 1000.84 1000.92 1001.23 1001.73
1015.04 1013.44 1011.95 1010.02 1008.42 1007.97 1007.65 1006.66 1005.83 1003.98 1002.44 1002.00 1002.84 1005.01 1005.14 1004.95 1004.86 1005.71 1005.86 1005.67 1006.09 1006.36 1005.03 1005.12 1004.41 1004.13 1003.63 1003.03 1002.53 1002.18 1002.26 1002.04 1001.99 1001.98 1001.92 1001.53 1001.00 1001.40 1001.28 1001.71 1001.80 1001.53 1001.87 1002.62
1015.52 1014.28 1012.86 1009.82 1008.66 1007.97 1007.41 1006.25 1005.44 1003.70 1002.81 1002.10 1003.04 1005.11 1005.60 1005.96 1005.91 1006.97 1006.81 1007.28 1007.17 1007.07 1006.16 1006.76 1005.65 1005.61 1005.40 1004.81 1004.45 1004.37 1003.98 1003.86 1003.57 1003.33 1003.24 1003.23 1003.01 1002.81 1002.89 1002.97 1003.41 1003.31 1002.84 1003.41
1015.33 1015.04 1014.53 1013.38 1012.25 1010.71 1008.99 1007.02 1005.73 1004.55 1003.74 1003.52 1003.66 1004.85 1005.98 1006.52 1006.90 1007.58 1007.61 1007.65 1007.45 1007.68 1007.77 1008.30 1007.06 1007.33 1007.01 1006.41 1006.12 1006.21 1005.83 1005.47 1005.05 1004.33 1004.20 1004.39 1004.42 1004.24 1004.44 1004.46 1004.67 1004.77 1004.59 1004.44
1015.62 1015.06 1014.04 1012.87 1011.82 1010.94 1009.73 1008.52 1007.18 1005.97 1005.21 1004.73 1005.28 1005.77 1006.38 1006.95 1007.66 1008.14 1008.05 1007.80 1007.75 1008.57 1008.83 1009.19 1008.41 1008.05 1008.31 1007.62 1007.91 1007.62 1007.20 1007.12 1006.63 1005.81 1005.56 1005.39 1005.31 1005.37 1005.64 1005.81 1006.11 1005.30 1005.74 1005.87
1015.70 1015.25 1014.06 1012.53 1011.09 1010.59 1010.47 1009.68 1008.80 1007.60 1006.84 1006.21 1006.38 1007.28 1007.66 1008.38 1008.12 1008.17 1008.26 1008.60 1008.98 1009.48 1009.66 1009.40 1009.15 1008.88 1009.17 1008.46 1009.09 1008.03 1008.51 1008.16 1007.66 1007.24 1006.58 1006.56 1006.28 1006.11 1006.60 1006.87 1006.72 1006.07 1006.92 1006.68
1016.07 1015.77 1015.14 1013.66 1011.88 1010.53 1010.36 1010.89 1010.63 1010.08 1009.36 1008.96 1009.09 1010.13 1009.39 1009.42 1009.56 1010.03 1009.65 1009.81 1010.05 1010.12 1009.65 1009.74 1009.56 1009.33 1009.63 1009.49 1009.09 1009.11 1008.71 1009.03 1009.21 1007.51 1007.72 1008.23 1007.62 1007.62 1007.16 1007.02 1007.07 1007.27 1006.95 1007.12
1016.39 1016.51 1016.25 1015.29 1013.54 1013.37 1013.62 1012.56 1012.18 1011.89 1011.71 1011.24 1011.11 1011.13 1011.02 1010.89 1010.92 1011.01 1011.01 1010.95 1011.24 1011.34 1010.38 1010.68 1010.42 1009.27 1009.91 1009.69 1009.56 1009.37 1009.63 1009.84 1008.90 1008.22 1009.15 1008.70 1008.68 1008.56 1008.47 1008.21 1008.25 1008.14 1007.88 1007.34
1016.57 1017.04 1017.32 1017.21 1015.94 1014.69 1013.42 1013.16 1012.72 1012.42 1012.72 1012.63 1012.30 1012.02 1011.89 1011.36 1011.24 1011.90 1012.33 1012.16 1011.90 1011.70 1011.40 1011.43 1011.02 1010.85 1010.86 1010.88 1010.65 1010.30 1009.62 1009.05 1008.35 1010.13 1009.22 1009.51 1009.13 1009.28 1008.93 1009.01 1008.19 1008.37 1008.46 1008.31
1016.96 1017.51 1018.32 1018.22 1017.68 1016.27 1015.32 1013.84 1013.23 1012.85 1013.52 1013.64 1013.26 1012.92 1012.73 1012.25 1012.74 1013.43 1013.08 1012.70 1012.65 1012.81 1012.47 1011.99 1011.49 1011.48 1011.70 1011.49 1011.06 1010.46 1009.83 1009.71 1009.64 1009.37 1009.90 1009.50 1010.06 1009.82 1009.44 1009.08 1008.69 1008.36 1007.92 1009.09
1017.94 1018.30 1019.05 1019.32 1018.49 1016.99 1015.64 1014.32 1013.24 1013.64 1015.56 1014.44 1014.05 1013.91 1013.93 1014.17 1014.84 1015.01 1014.59 1014.17 1013.74 1013.46 1013.15 1012.92 1012.77 1012.40 1011.90 1011.68 1011.54 1011.27 1011.13 1011.04 1010.69 1010.45 1010.34 1010.42 1010.23 1009.98 1009.66 1009.62 1009.06 1008.42 1008.50 1008.49
1019.24 1019.43 1019.52 1019.17 1018.75 1017.56 1015.70 1014.35 1014.51 1015.49 1015.22 1014.97 1014.78 1014.75 1014.77 1014.93 1015.11 1014.99 1014.84 1014.85 1014.66 1014.24 1013.83 1013.40 1012.78 1012.58 1012.35 1012.05 1011.99 1011.91 1011.81 1011.69 1011.69 1011.74 1011.54 1011.10 1010.75 1010.36 1010.02 1009.82 1009.18 1008.83 1008.79 1008.89
1019.30 1019.36 1019.58 1019.55 1018.82 1017.45 1016.51 1016.19 1015.58 1015.48 1015.51 1015.53 1015.42 1015.42 1015.60 1015.85 1015.96 1015.88 1015.66 1015.43 1014.93 1014.45 1014.29 1014.01 1013.30 1013.00 1012.81 1012.73 1012.29 1011.98 1012.06 1011.98 1011.85 1011.66 1011.57 1011.18 1010.69 1010.19 1009.75 1009.42 1008.96 1008.80 1008.62 1008.29
1018.74 1018.53 1018.73 1018.78 1017.62 1016.96 1016.34 1015.94 1015.65 1015.53 1015.75 1015.94 1016.10 1016.27 1016.19 1016.40 1016.50 1016.43 1016.18 1015.87 1015.34 1014.82 1014.34 1013.83 1013.45 1013.15 1012.87 1012.69 1012.68 1012.55 1012.34 1012.13 1012.11 1011.67 1011.04 1010.69 1010.18 1009.67 1009.65 1009.20 1008.87 1008.40 1007.90 1007.77
1018.52 1018.22 1018.06 1017.85 1017.02 1016.57 1015.91 1015.67 1015.57 1015.64 1015.92 1016.22 1016.40 1016.54 1016.64 1016.80 1016.87 1016.80 1016.39 1015.73 1015.05 1014.71 1014.45 1014.34 1014.25 1014.03 1013.64 1013.42 1013.09 1012.67 1012.06 1011.68 1011.29 1010.89 1010.33 1009.82 1009.67 1009.23 1008.51 1008.09 1007.96 1007.48 1007.08 1006.59
1017.73 1017.41 1017.57 1017.16 1016.43 1016.34 1015.89 1015.55 1015.51 1015.92 1016.23 1016.43 1016.61 1016.71 1016.80 1016.95 1016.90 1016.74 1016.47 1016.03 1015.46 1015.04 1014.86 1014.57 1014.34 1014.13 1013.91 1013.45 1013.02 1012.74 1012.34 1011.86 1011.12 1010.48 1010.15 1009.32 1008.40 1007.93 1007.58 1007.11 1005.67 1005.58 1005.65 1005.07
Thickness
5543 5541 5526 5537 5540 5530 5516 5527 5547 5584 5594 5585 5596 5610 5630 5647 5648 5653 5658 5668 5678 5691 5700 5703 5707 5708 5704 5703 5704 5705 5704 5708 5703 5700 5699 5693 5692 5692 5693 5697 5700 5699 5696 5694
5515 5512 5518 5527 5528 5514 5527 5518 5530 5530 5563 5558 5564 5583 5611 5626 5638 5649 5654 5659 5671 5679 5681 5693 5702 5705 5703 5701 5702 5706 5706 5709 5707 5704 5708 5701 5698 5697 5699 5699 5698 5697 5694 5692
5499 5516 5514 5503 5502 5489 5499 5496 5503 5515 5539 5531 5534 5559 5606 5623 5629 5637 5654 5658 5661 5674 5678 5685 5694 5701 5706 5705 5703 5707 5709 5710 5712 5711 5707 5699 5692 5687 5685 5688 5689 5693 5695 5694
5487 5499 5490 5484 5476 5475 5472 5493 5494 5496 5502 5512 5540 5547 5576 5605 5620 5622 5645 5651 5654 5663 5674 5682 5692 5699 5702 5705 5710 5709 5712 5712 5714 5710 5708 5701 5699 5693 5696 5695 5694 5694 5692 5694
5467 5459 5454 5453 5467 5471 5467 5481 5479 5481 5478 5495 5519 5513 5565 5585 5593 5616 5632 5645 5650 5660 5671 5684 5692 5697 5701 5700 5700 5708 5711 5711 5712 5707 5711 5705 5699 5700 5699 5694 5693 5692 5693 5692
5437 5444 5440 5449 5461 5467 5462 5465 5484 5476 5475 5470 5508 5508 5541 5566 5572 5597 5602 5591 5604 5614 5627 5644 5664 5667 5675 5683 5693 5704 5706 5705 5703 5704 5706 5704 5702 5698 5693 5693 5692 5690 5690 5687
5416 5436 5443 5451 5434 5465 5465 5460 5471 5472 5469 5475 5527 5505 5523 5556 5547 5555 5554 5565 5577 5592 5599 5610 5623 5638 5653 5666 5683 5699 5700 5697 5695 5699 5699 5701 5697 5693 5694 5693 5692 5687 5688 5684
5353 5406 5434 5443 5439 5439 5454 5452 5470 5450 5409 5495 5517 5505 5537 5537 5531 5543 5544 5550 5565 5572 5580 5586 5596 5612 5629 5643 5661 5677 5684 5685 5690 5691 5694 5698 5696 5692 5691 5691 5689 5688 5688 5687
5374 5394 5426 5435 5450 5442 5459 5467 5478 5475 5479 5462 5513 5506 5501 5512 5520 5526 5528 5535 5542 5553 5565 5571 5580 5589 5603 5617 5633 5646 5658 5664 5671 5680 5685 5688 5689 5688 5687 5689 5689 5687 5681 5681
5378 5396 5410 5427 5447 5456 5442 5448 5462 5478 5452 5405 5515 5513 5481 5488 5494 5506 5509 5514 5522 5536 5542 5550 5560 5564 5580 5597 5608 5623 5631 5638 5645 5658 5664 5671 5675 5677 5676 5680 5681 5680 5682 5680
5377 5390 5420 5421 5425 5434 5442 5448 5439 5452 5467 5460 5461 5467 5464 5470 5471 5479 5486 5489 5503 5499 5516 5527 5535 5546 5560 5575 5587 5598 5607 5615 5620 5628 5637 5649 5654 5658 5661 5662 5664 5667 5669 5668
5373 5388 5371 5413 5434 5441 5439 5434 5430 5458 5471 5457 5419 5457 5443 5454 5461 5462 5463 5472 5475 5476 5496 5500 5514 5523 5536 5551 5563 5571 5577 5587 5595 5601 5606 5618 5631 5635 5640 5640 5644 5651 5651 5649
5367 5378 5380 5415 5426 5437 5433 5447 5450 5461 5460 5477 5470 5463 5447 5450 5453 5446 5452 5450 5454 5453 5473 5476 5488 5496 5508 5522 5535 5543 5553 5562 5571 5579 5584 5591 5599 5608 5613 5617 5617 5623 5631 5631
5381 5356 5368 5375 5381 5401 5413 5441 5451 5460 5465 5468 5464 5462 5453 5447 5445 5439 5438 5440 5448 5447 5448 5451 5469 5470 5480 5496 5507 5516 5525 5537 5548 5561 5568 5570 5577 5583 5586 5592 5597 5602 5607 5614
5373 5360 5383 5398 5405 5415 5419 5421 5440 5448 5462 5468 5462 5460 5455 5443 5438 5432 5436 5439 5443 5441 5440 5438 5451 5456 5463 5476 5480 5491 5504 5512 5523 5538 5546 5551 5557 5564 5566 5569 5573 5585 5585 5588
5374 5368 5390 5401 5425 5420 5422 5419 5429 5438 5444 5461 5460 5446 5433 5428 5432 5440 5438 5438 5438 5434 5435 5437 5441 5445 5444 5458 5455 5475 5479 5488 5500 5510 5523 5530 5539 5544 5546 5550 5551 5564 5561 5571
5372 5367 5375 5386 5416 5425 5421 5409 5412 5416 5423 5427 5426 5412 5419 5417 5416 5412 5423 5424 5422 5423 5430 5428 5432 5436 5434 5440 5444 5448 5462 5463 5471 5492 5499 5501 5513 5518 5528 5534 5538 5540 5541 5553
5359 5367 5366 5372 5395 5354 5388 5401 5399 5402 5402 5403 5406 5404 5403 5405 5407 5409 5410 5411 5409 5410 5419 5416 5420 5433 5427 5431 5437 5441 5443 5438 5456 5472 5472 5483 5490 5496 5500 5508 5513 5518 5524 5535
5369 5360 5342 5338 5369 5397 5406 5393 5396 5399 5393 5392 5397 5404 5404 5413 5413 5400 5397 5399 5400 5402 5406 5406 5410 5414 5414 5416 5419 5425 5433 5438 5451 5440 5450 5458 5467 5474 5482 5486 5497 5500 5504 5508
5372 5361 5330 5331 5344 5374 5367 5389 5394 5396 5386 5386 5391 5393 5393 5400 5390 5382 5389 5392 5391 5387 5392 5397 5403 5404 5402 5405 5408 5413 5421 5426 5430 5435 5433 5442 5443 5451 5459 5467 5477 5486 5494 5487
5367 5352 5316 5306 5333 5367 5375 5382 5398 5389 5372 5380 5383 5383 5380 5373 5368 5367 5371 5375 5380 5382 5385 5387 5386 5389 5394 5396 5397 5401 5404 5407 5412 5417 5421 5423 5429 5436 5443 5448 5458 5470 5473 5478
5360 5346 5339 5328 5302 5327 5377 5387 5377 5363 5372 5375 5376 5374 5374 5370 5368 5369 5369 5368 5370 5372 5375 5379 5382 5382 5382 5385 5385 5385 5388 5391 5394 5396 5401 5409 5413 5419 5425 5431 5441 5449 5452 5458
5346 5349 5355 5341 5327 5356 5369 5366 5371 5372 5369 5366 5368 5366 5365 5361 5359 5359 5360 5361 5365 5368 5367 5367 5371 5373 5372 5371 5372 5374 5374 5378 5380 5385 5388 5392 5399 5406 5415 5420 5426 5433 5437 5446
5369 5365 5351 5348 5363 5363 5367 5369 5370 5368 5364 5360 5358 5355 5355 5353 5352 5352 5352 5354 5357 5359 5361 5364 5365 5364 5363 5361 5358 5357 5359 5360 5362 5367 5373 5379 5386 5394 5397 5405 5409 5418 5427 5431
5354 5361 5363 5359 5362 5361 5366 5365 5366 5364 5358 5354 5351 5349 5347 5346 5344 5344 5346 5350 5354 5355 5356 5353 5349 5348 5348 5347 5344 5346 5349 5349 5350 5354 5358 5363 5366 5372 5383 5390 5394 5402 5410 5418
5359 5365 5352 5348 5367 5363 5361 5362 5356 5350 5347 5344 5342 5341 5340 5338 5337 5337 5337 5339 5345 5346 5345 5344 5343 5340 5337 5336 5334 5331 5330 5331 5335 5338 5340 5347 5355 5360 5364 5371 5386 5390 5393 5402